| time (UTC) | temp C | wind direction | speed KPH | gust KPH | rain 1hr cm | rain 24hr cm | rain mn cm | humidity % | barometer mb |
| 20260508050057 | 16 | 178 | 8.0 | 14.5 | 0.00 | 0.00 | 0.00 | 44 | 1011.8 |
| 20260508044559 | 16 | 181 | 8.0 | 16.1 | 0.00 | 0.00 | 0.00 | 44 | 1011.9 |
| 20260508043055 | 16 | 180 | 6.4 | 16.1 | 0.00 | 0.00 | 0.00 | 46 | 1011.9 |
| 20260508041557 | 16 | 180 | 8.0 | 17.7 | 0.00 | 0.00 | 0.00 | 47 | 1012.0 |
| 20260508040100 | 16 | 168 | 8.0 | 16.1 | 0.00 | 0.00 | 0.00 | 49 | 1011.9 |
| 20260508034559 | 17 | 178 | 8.0 | 16.1 | 0.00 | 0.00 | 0.00 | 50 | 1011.9 |
| 20260508033101 | 17 | 159 | 8.0 | 16.1 | 0.00 | 0.00 | 0.00 | 50 | 1011.9 |
| 20260508031556 | 18 | 170 | 6.4 | 16.1 | 0.00 | 0.00 | 0.00 | 52 | 1011.8 |
| 20260508030055 | 20 | 180 | 4.8 | 9.7 | 0.00 | 0.00 | 0.00 | 46 | 1011.7 |
| 20260508024600 | 22 | 233 | 1.6 | 4.8 | 0.00 | 0.00 | 0.00 | 36 | 1011.5 |
| 20260508023056 | 22 | 233 | 0.0 | 3.2 | 0.00 | 0.00 | 0.00 | 31 | 1011.3 |
| 20260508021555 | 23 | 0 | 0.0 | 3.2 | 0.00 | 0.00 | 0.00 | 26 | 1011.4 |
| 20260508020053 | 23 | 208 | 1.6 | 4.8 | 0.00 | 0.00 | 0.00 | 27 | 1011.4 |
| 20260508014558 | 24 | 208 | 0.0 | 4.8 | 0.00 | 0.00 | 0.00 | 28 | 1011.4 |
| 20260508013054 | 25 | 0 | 0.0 | 4.8 | 0.00 | 0.00 | 0.00 | 23 | 1011.5 |
| 20260508011607 | 25 | 208 | 0.0 | 6.4 | 0.00 | 0.00 | 0.00 | 22 | 1011.5 |
| 20260508010057 | 25 | 208 | 3.2 | 8.0 | 0.00 | 0.00 | 0.00 | 20 | 1011.6 |
| 20260508004559 | 26 | 210 | 3.2 | 9.7 | 0.00 | 0.00 | 0.00 | 19 | 1011.8 |
| 20260508003055 | 26 | 167 | 4.8 | 11.3 | 0.00 | 0.00 | 0.00 | 20 | 1011.9 |
| 20260508001556 | 26 | 170 | 4.8 | 11.3 | 0.00 | 0.00 | 0.00 | 20 | 1011.9 |
| 20260508000058 | 26 | 238 | 8.0 | 12.9 | 0.00 | 0.00 | 0.00 | 20 | 1012.0 |
| 20260507234559 | 26 | 0 | 3.2 | 16.1 | 0.00 | 0.00 | 0.00 | 21 | 1012.2 |
| 20260507233055 | 26 | 220 | 3.2 | 11.3 | 0.00 | 0.00 | 0.00 | 22 | 1012.1 |
| 20260507231559 | 26 | 211 | 6.4 | 12.9 | 0.00 | 0.00 | 0.00 | 22 | 1012.2 |
| 20260507230053 | 25 | 179 | 4.8 | 12.9 | 0.00 | 0.00 | 0.00 | 23 | 1012.4 |
| 20260507224559 | 25 | 233 | 4.8 | 12.9 | 0.00 | 0.00 | 0.00 | 24 | 1012.6 |
| 20260507223058 | 26 | 213 | 9.7 | 17.7 | 0.00 | 0.00 | 0.00 | 24 | 1012.7 |
| 20260507221557 | 25 | 226 | 4.8 | 16.1 | 0.00 | 0.00 | 0.00 | 23 | 1012.7 |
| 20260507220055 | 25 | 258 | 4.8 | 16.1 | 0.00 | 0.00 | 0.00 | 24 | 1013.1 |
| 20260507214557 | 25 | 203 | 8.0 | 12.9 | 0.00 | 0.00 | 0.00 | 25 | 1013.2 |
| 20260507213055 | 24 | 167 | 8.0 | 24.1 | 0.00 | 0.00 | 0.00 | 24 | 1013.2 |
| 20260507211600 | 24 | 178 | 8.0 | 16.1 | 0.00 | 0.00 | 0.00 | 26 | 1013.5 |
| 20260507210059 | 23 | 180 | 6.4 | 22.5 | 0.00 | 0.00 | 0.00 | 29 | 1013.7 |
| 20260507204601 | 23 | 181 | 8.0 | 20.9 | 0.00 | 0.00 | 0.00 | 29 | 1013.9 |
| 20260507203100 | 23 | 171 | 6.4 | 19.3 | 0.00 | 0.00 | 0.00 | 31 | 1014.1 |
| 20260507201610 | 23 | 238 | 9.7 | 20.9 | 0.00 | 0.00 | 0.00 | 33 | 1014.2 |
| 20260507200118 | 22 | 213 | 6.4 | 22.5 | 0.00 | 0.00 | 0.00 | 36 | 1014.3 |
| 20260507194558 | 22 | 185 | 11.3 | 24.1 | 0.00 | 0.00 | 0.00 | 35 | 1014.4 |
| 20260507193058 | 22 | 203 | 8.0 | 20.9 | 0.00 | 0.00 | 0.00 | 38 | 1014.4 |
| 20260507191559 | 22 | 185 | 11.3 | 20.9 | 0.00 | 0.00 | 0.00 | 38 | 1014.5 |
| 20260507184559 | 21 | 202 | 12.9 | 22.5 | 0.00 | 0.00 | 0.00 | 41 | 1014.7 |
| 20260507183054 | 21 | 234 | 8.0 | 17.7 | 0.00 | 0.00 | 0.00 | 42 | 1014.9 |
| 20260507181556 | 20 | 192 | 11.3 | 19.3 | 0.00 | 0.00 | 0.00 | 43 | 1015.0 |
| 20260507180057 | 20 | 240 | 11.3 | 25.7 | 0.00 | 0.00 | 0.00 | 43 | 1015.2 |
| 20260507174601 | 20 | 202 | 9.7 | 20.9 | 0.00 | 0.00 | 0.00 | 44 | 1015.1 |
| 20260507173102 | 19 | 179 | 12.9 | 22.5 | 0.00 | 0.00 | 0.00 | 44 | 1015.2 |
| 20260507171604 | 18 | 184 | 11.3 | 29.0 | 0.00 | 0.00 | 0.00 | 48 | 1015.3 |
| 20260507170059 | 18 | 194 | 11.3 | 29.0 | 0.00 | 0.00 | 0.00 | 49 | 1015.3 |
| 20260507164554 | 18 | 215 | 11.3 | 24.1 | 0.00 | 0.00 | 0.00 | 49 | 1015.5 |
| 20260507163110 | 17 | 198 | 11.3 | 27.4 | 0.00 | 0.00 | 0.00 | 52 | 1015.2 |
| 20260507161554 | 17 | 184 | 11.3 | 29.0 | 0.00 | 0.00 | 0.00 | 55 | 1015.2 |
| 20260507160057 | 16 | 205 | 11.3 | 27.4 | 0.00 | 0.00 | 0.00 | 58 | 1015.2 |
| 20260507154553 | 16 | 182 | 8.0 | 24.1 | 0.00 | 0.00 | 0.00 | 60 | 1015.5 |
| 20260507153101 | 15 | 198 | 9.7 | 16.1 | 0.00 | 0.00 | 0.00 | 62 | 1015.5 |
| 20260507151555 | 15 | 252 | 3.2 | 11.3 | 0.00 | 0.00 | 0.00 | 64 | 1015.4 |
| 20260507150055 | 15 | 280 | 8.0 | 17.7 | 0.00 | 0.00 | 0.00 | 63 | 1015.4 |
| 20260507144616 | 15 | 134 | 1.6 | 12.9 | 0.00 | 0.00 | 0.00 | 65 | 1015.4 |
| 20260507143056 | 15 | 266 | 1.6 | 14.5 | 0.00 | 0.00 | 0.00 | 66 | 1015.2 |
| 20260507141622 | 14 | 178 | 8.0 | 16.1 | 0.00 | 0.00 | 0.00 | 66 | 1015.0 |
| 20260507140058 | 14 | 195 | 6.4 | 14.5 | 0.00 | 0.00 | 0.00 | 66 | 1014.9 |
| 20260507134556 | 14 | 138 | 6.4 | 16.1 | 0.00 | 0.00 | 0.00 | 68 | 1014.6 |
| 20260507133056 | 13 | 175 | 4.8 | 11.3 | 0.00 | 0.00 | 0.00 | 69 | 1014.7 |
| 20260507131553 | 13 | 171 | 4.8 | 11.3 | 0.00 | 0.00 | 0.00 | 70 | 1014.7 |
| 20260507130104 | 14 | 121 | 1.6 | 9.7 | 0.00 | 0.00 | 0.00 | 68 | 1014.5 |
| 20260507124556 | 14 | 217 | 4.8 | 12.9 | 0.00 | 0.00 | 0.00 | 66 | 1014.4 |
| 20260507123053 | 14 | 217 | 8.0 | 19.3 | 0.00 | 0.00 | 0.00 | 66 | 1014.1 |
| 20260507121556 | 14 | 210 | 9.7 | 24.1 | 0.00 | 0.00 | 0.00 | 68 | 1014.2 |
| 20260507120058 | 13 | 250 | 6.4 | 20.9 | 0.00 | 0.00 | 0.00 | 69 | 1014.4 |
| 20260507114600 | 13 | 245 | 4.8 | 16.1 | 0.00 | 0.00 | 0.00 | 69 | 1014.4 |
| 20260507113055 | 13 | 173 | 1.6 | 9.7 | 0.00 | 0.00 | 0.00 | 68 | 1014.6 |
| 20260507111554 | 13 | 108 | 1.6 | 9.7 | 0.00 | 0.00 | 0.00 | 67 | 1014.5 |
| 20260507110059 | 13 | 196 | 0.0 | 14.5 | 0.00 | 0.00 | 0.00 | 66 | 1014.4 |
| 20260507104556 | 13 | 181 | 6.4 | 16.1 | 0.00 | 0.00 | 0.00 | 66 | 1014.4 |
| 20260507103113 | 14 | 205 | 1.6 | 8.0 | 0.00 | 0.00 | 0.00 | 64 | 1014.5 |
| 20260507101556 | 15 | 167 | 3.2 | 14.5 | 0.00 | 0.00 | 0.00 | 64 | 1014.4 |
| 20260507100054 | 15 | 177 | 4.8 | 16.1 | 0.00 | 0.00 | 0.00 | 63 | 1014.6 |
| 20260507094557 | 15 | 271 | 6.4 | 14.5 | 0.00 | 0.00 | 0.00 | 63 | 1014.5 |
| 20260507093100 | 15 | 240 | 8.0 | 19.3 | 0.00 | 0.00 | 0.00 | 61 | 1014.6 |
| 20260507091559 | 16 | 182 | 4.8 | 19.3 | 0.00 | 0.00 | 0.00 | 59 | 1014.3 |
| 20260507090053 | 15 | 175 | 3.2 | 8.0 | 0.00 | 0.00 | 0.00 | 60 | 1014.3 |
| 20260507084553 | 15 | 193 | 0.0 | 9.7 | 0.00 | 0.00 | 0.00 | 59 | 1014.1 |
| 20260507083056 | 15 | 261 | 1.6 | 6.4 | 0.00 | 0.00 | 0.00 | 59 | 1014.0 |
| 20260507081557 | 15 | 221 | 3.2 | 8.0 | 0.00 | 0.00 | 0.00 | 59 | 1013.9 |
| 20260507080054 | 16 | 30 | 1.6 | 8.0 | 0.00 | 0.00 | 0.00 | 56 | 1013.8 |
| 20260507074552 | 17 | 173 | 4.8 | 20.9 | 0.00 | 0.00 | 0.00 | 54 | 1013.6 |
| 20260507073057 | 17 | 218 | 12.9 | 35.4 | 0.00 | 0.00 | 0.00 | 53 | 1013.3 |
| 20260507071557 | 17 | 193 | 12.9 | 37.0 | 0.00 | 0.00 | 0.00 | 53 | 1013.1 |
| 20260507070059 | 17 | 136 | 16.1 | 35.4 | 0.00 | 0.00 | 0.00 | 52 | 1013.2 |
| 20260507064553 | 17 | 153 | 14.5 | 32.2 | 0.00 | 0.00 | 0.00 | 52 | 1013.2 |
| 20260507063056 | 17 | 188 | 12.9 | 37.0 | 0.00 | 0.00 | 0.00 | 52 | 1013.3 |
| 20260507061556 | 17 | 177 | 9.7 | 27.4 | 0.00 | 0.00 | 0.00 | 52 | 1013.3 |
| 20260507054552 | 18 | 190 | 12.9 | 29.0 | 0.00 | 0.00 | 0.00 | 49 | 1013.2 |
| 20260507053058 | 18 | 184 | 9.7 | 24.1 | 0.00 | 0.00 | 0.00 | 48 | 1013.2 |
| 20260507051556 | 19 | 184 | 9.7 | 20.9 | 0.00 | 0.00 | 0.00 | 48 | 1013.3 |